2019-071Q (45125 NORAD) Tracking and Keplerian Element Data

This shows tracking and keplerian element data for the satellite.

Feedback or suggestion? Click here.




ElementValue
Catalog45125
Name2019-071Q
Epoch Orbit244
Epoch Day48.4988406
Epoch Year2020
RAAN227.5983
Inclination51.6429
Eccentricity0.00101
Argument of Perigee311.9293
Mean Anonmoly48.0827
Mean Motion15.33153502
Decay Rate9.16E-06
L11 45125U 19071Q 20048.49884060 .00000916 00000-0 39754-4 0 9996
L22 45125 51.6429 227.5983 0010100 311.9293 48.0827 15.33153502 2449

Live tracking and technical data element details for 2019-071Q (NORAD 45125). 2019-071Q can be tracked NOW for your location showing map with azimuth and elevation plus other details from your city location.

Track the satellite on the map from your city or location and see movement details for azimuth, elevation, latitude, longitude, range, height, and movement on the map or in text.







IsCatalogInMostPopularTable: catalog: 45125, numindb: -1

Insert: records affected: 1


GetName: 45125 2019-071Q

Hit Count: inserted at: Tue, 18 Feb 2020 01:00:05 GMT